Flag for Azerbaijan Weather past 2 weeks in Sumqayit, Azerbaijan

Now
93 °F

Sunny.


Feels Like: 91 °F
Forecast: 76 / 94 °F
Wind: 5 mph from Southwest

Location: Baku / Bine Airport

Current Time: Aug 28, 2014 at 10:16:27 AM

Latest Report: Aug 28, 2014 at 10:00 AM


Visibility: 10 mi

Pressure: 29.80 "Hg

Humidity: 28%

Dew point: 55 °F

Location of SumqayitLocation

Historic Weather in Sumqayit — Graph

°F

Sumqayit temperature yesterday

Maximum temperature yesterday: 100 °F (at 2:00 PM)
Minimum temperature yesterday: 77 °F (at 3:00 AM)
Average temperature yesterday: 88 °F

Past Weeks' High & Low Weather Summary

 TemperatureHumidityPressure
High102 °F (Aug 19, 4:30 PM)100% (Aug 17, 2:30 AM)30.04 "Hg (Aug 17, 2:30 AM)
Low68 °F (Aug 15, 5:00 AM)18% (Aug 27, 2:30 PM)29.68 "Hg (Aug 18, 3:00 PM)
Average84 °F65%29.86 "Hg
* Reported Aug 13 9:00 AM — Aug 28 9:00 AM, Sumqayit, Weather by CustomWeather, © 2014

Note: Actual official high and low records may vary slightly from our data, if they occured in-between our weather recording intervals... More about our weather records

Advertising

Sumqayit weather history for previous 24 hours

 ConditionsComfort  
Time TempWeatherWind HumidityBarometerVisibility
9:00 AM
Aug 28
86 °FSunny.No wind55%29.80 "Hg10 mi
8:30 AM79 °FSunny.No wind79%29.80 "Hg10 mi
8:00 AM72 °FClear.3 mph88%29.80 "Hg10 mi
7:30 AM70 °FClear.No wind94%29.80 "Hg10 mi
7:00 AM72 °FClear.1 mph88%29.80 "Hg10 mi
6:30 AM72 °FPassing clouds.No wind88%29.77 "HgN/A
6:00 AM70 °FPassing clouds.No wind94%29.77 "HgN/A
5:30 AM73 °FPassing clouds.No wind89%29.77 "HgN/A
5:00 AM77 °FPassing clouds.No wind89%29.77 "HgN/A
4:30 AM77 °FPassing clouds.No wind83%29.80 "HgN/A
4:00 AM77 °FPassing clouds.3 mph83%29.80 "HgN/A
3:30 AM77 °FClear.3 mph83%29.80 "Hg10 mi
3:00 AM77 °FClear.6 mph83%29.80 "Hg10 mi
2:30 AM77 °FClear.6 mph89%29.80 "Hg10 mi
2:00 AM77 °FClear.2 mph83%29.80 "Hg10 mi
1:30 AM79 °FClear.5 mph79%29.80 "Hg10 mi
1:00 AM81 °FClear.7 mph66%29.80 "Hg10 mi
12:30 AM81 °FClear.2 mph66%29.80 "Hg10 mi
12:00 AM79 °FClear.5 mph65%29.80 "Hg10 mi
11:00 PM
Aug 27
81 °FClear.3 mph54%29.83 "Hg10 mi
10:30 PM82 °FClear.1 mph51%29.83 "Hg10 mi
10:00 PM84 °FClear.No wind48%29.83 "Hg10 mi
9:30 PM84 °FClear.3 mph48%29.83 "Hg10 mi
9:00 PM86 °FSunny.7 mph49%29.80 "Hg10 mi
7:30 PM91 °FSunny.9 mph32%29.80 "Hg10 mi
7:00 PM93 °FSunny.10 mph28%29.80 "Hg10 mi
6:30 PM95 °FSunny.14 mph25%29.80 "Hg10 mi
6:00 PM97 °FSunny.13 mph23%29.83 "Hg10 mi
5:30 PM97 °FSunny.14 mph20%29.83 "Hg10 mi
5:00 PM97 °FSunny.13 mph23%29.83 "Hg10 mi
4:30 PM95 °FSunny.14 mph30%29.83 "Hg10 mi
3:30 PM99 °FSunny.17 mph22%29.86 "Hg10 mi
3:00 PM100 °FSunny.16 mph20%29.86 "Hg10 mi
2:30 PM100 °FSunny.17 mph18%29.86 "Hg10 mi
2:00 PM100 °FSunny.16 mph21%29.86 "Hg10 mi
1:30 PM99 °FSunny.17 mph24%29.86 "Hg10 mi
1:00 PM99 °FSunny.16 mph24%29.89 "Hg10 mi
12:30 PM99 °FSunny.15 mph22%29.89 "Hg10 mi
12:00 PM99 °FSunny.12 mph21%29.89 "Hg10 mi
11:30 AM97 °FSunny.10 mph27%29.92 "Hg10 mi
11:00 AM95 °FSunny.3 mph32%29.92 "Hg10 mi
10:30 AM93 °FSunny.2 mph36%29.92 "Hg10 mi
10:00 AM91 °FSunny.2 mph44%29.89 "Hg10 mi
Weather by CustomWeather, © 2014

See weather overviewHow to use our weather pages